SL-12 DEB, 43541

Orbit data source: Space-Track

SL-12 DEB, 43541 is space debris in HEO originally from a launch on Fri, 26 Oct 2007 UTC launched from the Tyuratam Missile And Space Complex (TTMTR). Debris objects in space refer to the collection of defunct objects orbiting the Earth. Examples of debris include non-operational satellites, rocket bodies, and fragments generated from explosions, collisions, or faulty payload assembly.

Loading next visibility...
SL-12 DEB details
Identifier
43541, 2007-052AH
Orbit
HEO
Last TLE update2 days ago
Origin
Flag of CISRVSN RF (CIS)
ManufacturerRKKE
MissionSpacecraft
Bus & MotorUnknown
MassUnknown
Launch date (UTC)
2007-10-26 (17 years ago)
Launch vehicleUnknown
Launch site
Tyuratam Missile And Space Complex (TTMTR)
Object type
Payload
Rocket body
Debris
Shape & HBRUnknown
Radar Cross SectionMedium (>0.1 m² and <1 m²)

Expand to show TLE details & history

TLE from 2 days ago
0 SL-12 DEB
1 43541U 07052AH  24359.26362658  .00000767  00000-0  48132-2 0  9992
2 43541  65.2751 109.7884 5639388 237.2880  55.8654  4.25652661100656
Epoch: 2024-12-24T06:19Z
Definitive object data (Epoch: 2024-12-24T06:19:37.336Z)
Latitude-0.00001°
Longitude-78.38579°
Altitude9,420.803 km
Speed5.068 km/s
True Right ascension07h 19m 10s
True Declination0° 00' 00"
Sunlit
Object was in daylight at TLE epoch
Visualization TLE readout
Latitude48.81607°
Longitude-47.46896°
Altitude18,768.904 km
Speed2.633 km/s
Apparent Right ascension08h 59m 56s
Apparent Declination51° 19' 24"
Sunlit
Object is in daylight
Visualization observer readout
Local Sidereal Time10:18:47
Azimuth316.394° NNW
Elevation72.206°
Doppler factor1
Orbital elements
Apogee altitude18,772.777 km
Perigee altitude634.502 km
Semi-major axis16,081.776 km
Eccentricity0.5639388
Inclination65.2751°
RAAN109.7884°
Arg. of periapsis237.288°
True anomaly122.79525°
Mean anomaly55.8654°
Eccentric anomaly88.16005°
Mean motion1.06425 °/min
BSTAR0.0048132
Orbital period338.27 mins
Loading maneuver chart data...
Loading historical data...
Loading historical data...
Loading historical data...
Loading historical data...
Loading historical data...
Loading historical data...
Loading historical data...

SL-12 DEB Visibility forecast

Observer location: undefined°, undefined

Span
Click to sort rows by Start time (UTC) header in descending order
Start Az.
Max El. time (UTC)
Max El. Az.
Max El.
End time (UTC)
End Az.
132 mins2024-12-26 10:57:31.260Z316.322° NNW2024-12-26 10:57:31.260Z316.322° NNW43.599°2024-12-26 13:09:31.260Z57.211° ENE
151 mins2024-12-26 16:40:31.260Z315.598° NNW2024-12-26 18:55:31.260Z249.771° W44.415°2024-12-26 19:11:31.260Z167.496° S
91 mins2024-12-27 03:27:31.260Z55.947° ENE2024-12-27 04:15:31.260Z41.068° NE14.426°2024-12-27 04:58:31.260Z26.882° NE
211 mins2024-12-27 07:26:31.260Z178.702° S2024-12-27 09:01:31.260Z85.868° E44.889°2024-12-27 10:57:31.260Z30.632° NE
|